Harare Kutsaga, Zimbabwe

12:31 PM CAT on July 30, 2016 (GMT +0200)
Harare International

Weather History for FVHA - August, 2013

Change the Weather History Date:

Monday, August 12, 2013

  Actual Average Record
Temperature  
Mean Temperature 66 °F -  
Max Temperature 79 °F 77 °F 82 °F (2003)
Min Temperature 52 °F 47 °F 41 °F (2008)
Growing Degree Days 16 (Base 50)    
Moisture  
Dew Point 42 °F    
Average Humidity 43    
Maximum Humidity 77    
Minimum Humidity 13    
Precipitation  
Precipitation 0.00 in 0.01 in - ()
Sea Level Pressure  
Sea Level Pressure 30.20 in    
Wind  
Wind Speed 8 mph ()    
Max Wind Speed 15 mph    
Max Gust Speed -    
Visibility 9.0 miles    
Events      
Averages and records for this station are not official NWS values.
T = Trace of Precipitation, MM = Missing Value Source: Averaged Metar Reports

Daily Weather History Graph

Daily Weather History Graph

Search for Another Location

Airport or City:

Trip Planner

Search our weather history database for the weather conditions in past years. The results will help you decide how hot, cold, wet, or windy it might be!

Date:

Astronomy

Aug. 12, 2013 Rise Set
Actual Time 6:16 AM CAT 5:44 PM CAT
Civil Twilight 5:54 AM CAT 6:06 PM CAT
Nautical Twilight 5:28 AM CAT 6:32 PM CAT
Astronomical Twilight 5:02 AM CAT 6:58 PM CAT
Moon 9:42 AM CAT (8/12) 10:36 PM CAT (8/12)
Length of Visible Light 12h 12m
Length of Day
11h 27m
Waxing Crescent, 28% of the Moon is Illuminated
Aug 12
Waxing Crescent
Aug 14
First Quarter
Aug 21
Full
Aug 28
Last Quarter
Sep 5
New

Hourly Weather History & Observations

Time (CAT) Temp. Dew Point Humidity Pressure Visibility Wind Dir Wind Speed Gust Speed Precip Events Conditions
12:00 AM 60.8 °F 46.4 °F 59% 30.27 in - ENE 15.0 mph - N/A   Clear
1:00 AM 59.0 °F 46.4 °F 63% 30.24 in - ENE 12.7 mph - N/A   Clear
2:00 AM 56 °F 47 °F 62%  in 6 mi NE 9.2 mph - -   Haze
2:00 AM 57.2 °F 46.4 °F 67% 30.24 in - NE 9.2 mph - N/A   Clear
5:00 AM 55.4 °F 48.2 °F 77% 30.21 in - ENE 10.4 mph - N/A   Clear
7:00 AM 53.6 °F 46.4 °F 77% 30.27 in - Variable 1.2 mph - N/A   Clear
8:00 AM 60 °F 49 °F 59%  in 12 mi NE 5.8 mph - -   Haze
9:00 AM 66.2 °F 42.8 °F 43% 30.27 in - NNE 8.1 mph - N/A   Clear
10:00 AM 69.8 °F 41.0 °F 35% 30.27 in - NNE 9.2 mph - N/A   Clear
11:00 AM 73.4 °F 42.8 °F 33% 30.27 in - NE 8.1 mph - N/A   Clear
12:00 PM 75.2 °F 37.4 °F 25% 30.21 in - SE 8.1 mph - N/A   Clear
1:00 PM 78.8 °F 41.0 °F 26% 30.18 in - East 9.2 mph - N/A   Clear
2:00 PM 79 °F 38 °F 13%  in 12 mi ESE 8.1 mph - -   Haze
2:00 PM 78.8 °F 37.4 °F 23% 30.15 in - ESE 8.1 mph - N/A   Clear
3:00 PM 80.6 °F 35.6 °F 20% 30.15 in - ESE 8.1 mph - N/A   Clear
4:00 PM 78.8 °F 37.4 °F 23% 30.15 in - SSW 6.9 mph - N/A   Clear
5:00 PM 77.0 °F 41.0 °F 28% 30.15 in - East 9.2 mph - N/A   Clear
6:00 PM 69.8 °F 41.0 °F 35% 30.15 in - NNE 8.1 mph - N/A   Clear
7:00 PM 64.4 °F 41.0 °F 42% 30.15 in - NE 8.1 mph - N/A   Clear
8:00 PM 63 °F 41 °F 32%  in 6 mi ENE 8.1 mph - -   Haze
8:00 PM 62.6 °F 41.0 °F 45% 30.18 in - ENE 8.1 mph - N/A   Clear
9:00 PM 60.8 °F 41.0 °F 48% 30.18 in - NNE 6.9 mph - N/A   Clear
10:00 PM 62.6 °F 41.0 °F 45% 30.21 in - ENE 8.1 mph - N/A   Clear
11:00 PM 60.8 °F 41.0 °F 48% 30.18 in - ENE 9.2 mph - N/A   Clear